GFSNW_prec_pwat_354.txt.gz
Precipitable_Water
0.69 0.71 0.72 0.74 0.72 0.69 0.61 0.53 0.35 0.54 0.54 0.33 0.32 0.27 0.30 0.34 0.32 0.32 0.26 0.23 0.21 0.21 0.23 0.20 0.20 0.19 0.22 0.28 0.28 0.25 0.29 0.27 0.22 0.26 0.32 0.33 0.32 0.29 0.29 0.25 0.23 0.24 0.22 0.17
0.76 0.77 0.77 0.77 0.77 0.73 0.59 0.48 0.47 0.58 0.54 0.31 0.31 0.34 0.33 0.34 0.31 0.27 0.24 0.22 0.24 0.26 0.24 0.22 0.23 0.23 0.27 0.31 0.31 0.32 0.35 0.29 0.25 0.26 0.31 0.34 0.31 0.33 0.32 0.30 0.29 0.23 0.21 0.19
0.82 0.79 0.78 0.77 0.77 0.73 0.62 0.48 0.36 0.45 0.45 0.40 0.33 0.30 0.28 0.28 0.33 0.29 0.27 0.25 0.28 0.27 0.26 0.30 0.27 0.30 0.35 0.39 0.40 0.43 0.41 0.36 0.31 0.25 0.30 0.34 0.30 0.31 0.32 0.29 0.24 0.25 0.21 0.24
1.01 0.95 0.91 0.90 0.89 0.85 0.69 0.52 0.43 0.45 0.34 0.37 0.35 0.35 0.35 0.33 0.32 0.38 0.38 0.33 0.33 0.35 0.33 0.35 0.34 0.38 0.41 0.44 0.45 0.46 0.42 0.32 0.35 0.35 0.37 0.36 0.34 0.31 0.31 0.28 0.27 0.24 0.21 0.24
1.02 1.02 1.01 0.99 0.96 0.92 0.71 0.53 0.51 0.57 0.50 0.49 0.46 0.46 0.42 0.42 0.43 0.44 0.41 0.40 0.44 0.45 0.40 0.41 0.39 0.44 0.43 0.41 0.44 0.41 0.43 0.32 0.35 0.30 0.34 0.33 0.29 0.28 0.30 0.27 0.24 0.23 0.21 0.18
0.91 0.94 0.94 0.99 0.98 0.92 0.67 0.67 0.68 0.58 0.50 0.49 0.46 0.43 0.43 0.43 0.47 0.50 0.52 0.48 0.46 0.43 0.45 0.50 0.52 0.54 0.51 0.49 0.42 0.39 0.37 0.33 0.29 0.23 0.27 0.27 0.20 0.20 0.21 0.21 0.22 0.21 0.17 0.15
0.76 0.80 0.81 0.88 0.88 0.90 0.77 0.71 0.66 0.51 0.41 0.46 0.43 0.46 0.47 0.45 0.46 0.45 0.51 0.53 0.47 0.52 0.59 0.57 0.53 0.52 0.49 0.47 0.44 0.45 0.36 0.32 0.30 0.24 0.25 0.16 0.18 0.22 0.22 0.20 0.20 0.23 0.21 0.20
0.64 0.66 0.67 0.70 0.74 0.77 0.72 0.73 0.62 0.51 0.41 0.46 0.46 0.47 0.47 0.49 0.50 0.46 0.47 0.51 0.57 0.60 0.52 0.41 0.34 0.34 0.34 0.33 0.37 0.36 0.37 0.31 0.24 0.20 0.19 0.20 0.19 0.19 0.17 0.17 0.16 0.20 0.22 0.21
0.62 0.59 0.60 0.63 0.63 0.66 0.69 0.66 0.69 0.56 0.43 0.40 0.50 0.45 0.48 0.42 0.42 0.44 0.45 0.54 0.56 0.56 0.44 0.36 0.26 0.23 0.23 0.23 0.25 0.33 0.34 0.34 0.26 0.22 0.16 0.13 0.14 0.18 0.23 0.23 0.14 0.18 0.22 0.22
0.50 0.53 0.57 0.57 0.58 0.57 0.56 0.54 0.70 0.59 0.42 0.45 0.52 0.43 0.43 0.50 0.45 0.39 0.42 0.46 0.47 0.52 0.36 0.27 0.24 0.22 0.25 0.21 0.19 0.18 0.22 0.24 0.20 0.19 0.18 0.20 0.20 0.22 0.23 0.15 0.11 0.20 0.24 0.24
0.50 0.49 0.49 0.52 0.55 0.57 0.56 0.47 0.53 0.48 0.43 0.44 0.47 0.48 0.42 0.43 0.41 0.34 0.41 0.42 0.44 0.39 0.31 0.27 0.25 0.25 0.23 0.24 0.22 0.21 0.19 0.20 0.19 0.21 0.17 0.15 0.24 0.24 0.19 0.19 0.24 0.26 0.27 0.28
0.49 0.48 0.45 0.45 0.48 0.50 0.51 0.42 0.54 0.56 0.43 0.38 0.49 0.51 0.48 0.44 0.46 0.42 0.42 0.38 0.36 0.36 0.32 0.34 0.33 0.28 0.31 0.25 0.21 0.29 0.24 0.26 0.23 0.23 0.21 0.27 0.28 0.25 0.29 0.27 0.26 0.27 0.29 0.29
0.41 0.42 0.45 0.47 0.48 0.47 0.46 0.42 0.46 0.46 0.40 0.40 0.38 0.33 0.37 0.50 0.53 0.55 0.38 0.42 0.43 0.39 0.44 0.38 0.33 0.28 0.31 0.23 0.23 0.25 0.26 0.31 0.28 0.28 0.32 0.34 0.35 0.35 0.33 0.33 0.30 0.33 0.31 0.32
0.38 0.41 0.41 0.42 0.45 0.48 0.49 0.46 0.48 0.46 0.38 0.27 0.28 0.41 0.40 0.44 0.43 0.42 0.46 0.45 0.52 0.47 0.46 0.38 0.32 0.28 0.35 0.26 0.28 0.27 0.32 0.35 0.31 0.31 0.35 0.34 0.35 0.37 0.37 0.39 0.39 0.36 0.36 0.35
0.36 0.37 0.40 0.42 0.43 0.44 0.45 0.46 0.46 0.48 0.37 0.26 0.28 0.36 0.36 0.41 0.41 0.39 0.41 0.41 0.39 0.38 0.33 0.30 0.26 0.29 0.28 0.29 0.31 0.27 0.31 0.27 0.24 0.24 0.32 0.32 0.32 0.36 0.37 0.33 0.34 0.34 0.30 0.29
0.38 0.38 0.38 0.39 0.40 0.43 0.41 0.30 0.37 0.40 0.43 0.29 0.20 0.26 0.24 0.29 0.34 0.36 0.38 0.38 0.39 0.37 0.32 0.29 0.30 0.33 0.30 0.24 0.22 0.28 0.29 0.29 0.30 0.29 0.33 0.32 0.31 0.32 0.33 0.31 0.30 0.29 0.29 0.28
0.40 0.40 0.39 0.39 0.40 0.40 0.32 0.27 0.39 0.47 0.44 0.28 0.20 0.22 0.29 0.30 0.29 0.29 0.30 0.33 0.34 0.33 0.31 0.28 0.26 0.26 0.28 0.23 0.19 0.25 0.27 0.27 0.26 0.26 0.25 0.22 0.23 0.23 0.25 0.26 0.26 0.25 0.25 0.25
0.40 0.40 0.40 0.40 0.41 0.43 0.36 0.39 0.42 0.45 0.34 0.29 0.19 0.16 0.21 0.30 0.25 0.23 0.28 0.25 0.26 0.26 0.24 0.26 0.23 0.24 0.23 0.18 0.21 0.21 0.21 0.20 0.20 0.20 0.21 0.21 0.21 0.22 0.21 0.22 0.21 0.20 0.20 0.20
0.38 0.40 0.39 0.36 0.34 0.29 0.33 0.45 0.44 0.41 0.31 0.20 0.19 0.16 0.16 0.27 0.24 0.25 0.25 0.26 0.19 0.24 0.20 0.20 0.20 0.18 0.16 0.17 0.17 0.17 0.18 0.18 0.18 0.19 0.19 0.19 0.19 0.19 0.19 0.19 0.19 0.18 0.18 0.18
0.38 0.37 0.28 0.22 0.30 0.40 0.36 0.30 0.23 0.24 0.25 0.23 0.16 0.17 0.15 0.20 0.19 0.20 0.20 0.20 0.17 0.14 0.16 0.19 0.15 0.14 0.16 0.16 0.16 0.18 0.18 0.18 0.18 0.17 0.16 0.16 0.16 0.17 0.17 0.17 0.17 0.17 0.16 0.13
0.34 0.26 0.23 0.32 0.39 0.30 0.24 0.18 0.17 0.18 0.14 0.15 0.15 0.15 0.14 0.20 0.15 0.16 0.19 0.16 0.16 0.12 0.13 0.13 0.12 0.11 0.13 0.14 0.15 0.16 0.16 0.17 0.16 0.17 0.17 0.17 0.17 0.16 0.16 0.15 0.14 0.12 0.11 0.10
0.33 0.32 0.35 0.33 0.25 0.20 0.16 0.15 0.15 0.14 0.12 0.15 0.14 0.15 0.17 0.18 0.20 0.16 0.16 0.13 0.14 0.10 0.14 0.12 0.10 0.12 0.13 0.13 0.14 0.15 0.15 0.15 0.15 0.16 0.16 0.16 0.14 0.13 0.12 0.11 0.09 0.08 0.07 0.07
0.35 0.27 0.21 0.18 0.16 0.12 0.11 0.10 0.11 0.11 0.14 0.14 0.15 0.14 0.16 0.17 0.18 0.15 0.14 0.11 0.10 0.13 0.11 0.10 0.11 0.14 0.14 0.15 0.14 0.14 0.14 0.14 0.14 0.12 0.11 0.10 0.09 0.09 0.08 0.07 0.06 0.06 0.06 0.06
0.19 0.16 0.12 0.13 0.11 0.11 0.11 0.11 0.11 0.13 0.14 0.14 0.14 0.14 0.14 0.15 0.13 0.13 0.10 0.12 0.11 0.09 0.08 0.08 0.11 0.12 0.13 0.14 0.13 0.11 0.10 0.09 0.09 0.08 0.08 0.07 0.07 0.06 0.06 0.06 0.06 0.06 0.06 0.06
0.15 0.15 0.11 0.11 0.13 0.14 0.13 0.14 0.14 0.15 0.15 0.14 0.13 0.14 0.14 0.13 0.11 0.12 0.11 0.09 0.08 0.08 0.08 0.10 0.11 0.11 0.11 0.12 0.10 0.09 0.08 0.07 0.07 0.07 0.06 0.06 0.06 0.06 0.06 0.06 0.06 0.06 0.06 0.06
0.13 0.12 0.11 0.11 0.10 0.08 0.09 0.09 0.09 0.11 0.10 0.14 0.13 0.11 0.10 0.10 0.10 0.09 0.08 0.08 0.07 0.07 0.08 0.09 0.10 0.10 0.10 0.09 0.09 0.09 0.08 0.07 0.07 0.06 0.06 0.06 0.06 0.06 0.06 0.06 0.06 0.06 0.06 0.06
0.11 0.08 0.09 0.08 0.08 0.08 0.08 0.08 0.08 0.08 0.08 0.09 0.11 0.09 0.08 0.10 0.08 0.08 0.07 0.06 0.07 0.08 0.08 0.09 0.09 0.08 0.08 0.08 0.08 0.08 0.07 0.07 0.07 0.06 0.06 0.07 0.07 0.07 0.06 0.06 0.06 0.06 0.06 0.06

GFSNW_prec_pwat_357.txt.gz
Precipitable_Water
0.70 0.69 0.69 0.69 0.71 0.70 0.61 0.50 0.30 0.52 0.56 0.32 0.30 0.25 0.27 0.31 0.30 0.31 0.29 0.29 0.28 0.26 0.26 0.24 0.23 0.21 0.24 0.29 0.27 0.22 0.24 0.21 0.17 0.20 0.25 0.27 0.25 0.25 0.26 0.22 0.20 0.22 0.21 0.19
0.75 0.76 0.76 0.76 0.78 0.72 0.57 0.44 0.44 0.58 0.56 0.31 0.32 0.36 0.34 0.35 0.34 0.34 0.32 0.30 0.30 0.30 0.26 0.23 0.24 0.25 0.30 0.32 0.29 0.24 0.24 0.21 0.17 0.21 0.26 0.29 0.28 0.30 0.30 0.30 0.29 0.23 0.21 0.20
0.84 0.84 0.82 0.83 0.83 0.79 0.65 0.49 0.36 0.45 0.47 0.44 0.37 0.35 0.34 0.34 0.41 0.37 0.36 0.32 0.32 0.30 0.26 0.28 0.24 0.25 0.29 0.31 0.31 0.33 0.32 0.26 0.23 0.19 0.24 0.30 0.29 0.31 0.33 0.31 0.25 0.25 0.22 0.25
0.92 0.96 0.96 0.94 0.91 0.87 0.72 0.54 0.43 0.43 0.34 0.38 0.38 0.36 0.32 0.29 0.29 0.35 0.34 0.30 0.30 0.28 0.25 0.26 0.26 0.30 0.31 0.33 0.36 0.39 0.37 0.30 0.33 0.33 0.35 0.35 0.34 0.32 0.33 0.30 0.30 0.26 0.24 0.27
0.96 0.95 0.98 0.96 0.92 0.93 0.70 0.53 0.47 0.51 0.43 0.41 0.38 0.38 0.34 0.34 0.37 0.39 0.38 0.38 0.42 0.41 0.35 0.36 0.34 0.37 0.37 0.38 0.42 0.40 0.42 0.32 0.35 0.31 0.36 0.36 0.32 0.33 0.33 0.33 0.32 0.29 0.26 0.22
0.88 0.89 0.89 0.94 0.95 0.91 0.66 0.67 0.65 0.55 0.48 0.45 0.41 0.38 0.40 0.40 0.44 0.45 0.47 0.46 0.43 0.41 0.43 0.46 0.50 0.52 0.51 0.48 0.43 0.39 0.38 0.34 0.31 0.25 0.31 0.32 0.25 0.25 0.29 0.28 0.28 0.25 0.20 0.19
0.81 0.83 0.83 0.83 0.83 0.86 0.76 0.67 0.62 0.48 0.37 0.43 0.41 0.44 0.45 0.43 0.45 0.42 0.49 0.51 0.46 0.49 0.58 0.58 0.55 0.52 0.49 0.48 0.45 0.46 0.36 0.34 0.32 0.26 0.28 0.18 0.22 0.27 0.27 0.25 0.23 0.25 0.23 0.22
0.74 0.74 0.76 0.76 0.75 0.78 0.69 0.70 0.58 0.49 0.38 0.43 0.42 0.44 0.45 0.47 0.48 0.45 0.47 0.51 0.56 0.61 0.53 0.41 0.35 0.34 0.36 0.37 0.41 0.40 0.42 0.34 0.28 0.23 0.21 0.22 0.21 0.22 0.22 0.20 0.17 0.23 0.22 0.20
0.58 0.60 0.66 0.69 0.71 0.74 0.72 0.66 0.66 0.53 0.41 0.36 0.44 0.42 0.45 0.40 0.40 0.42 0.43 0.52 0.60 0.56 0.44 0.36 0.26 0.23 0.27 0.26 0.28 0.37 0.36 0.37 0.28 0.24 0.18 0.15 0.16 0.20 0.24 0.24 0.15 0.19 0.21 0.20
0.56 0.55 0.56 0.56 0.59 0.60 0.59 0.58 0.69 0.54 0.40 0.43 0.46 0.39 0.39 0.48 0.44 0.40 0.44 0.47 0.47 0.53 0.37 0.30 0.27 0.26 0.31 0.24 0.22 0.21 0.26 0.25 0.21 0.20 0.18 0.20 0.19 0.20 0.23 0.15 0.11 0.18 0.21 0.21
0.44 0.49 0.54 0.54 0.54 0.56 0.56 0.50 0.57 0.48 0.41 0.44 0.50 0.51 0.45 0.45 0.44 0.36 0.45 0.42 0.43 0.40 0.32 0.31 0.29 0.28 0.28 0.27 0.26 0.23 0.21 0.21 0.20 0.21 0.18 0.15 0.24 0.23 0.18 0.17 0.22 0.23 0.24 0.25
0.45 0.46 0.47 0.47 0.47 0.49 0.54 0.47 0.57 0.57 0.45 0.38 0.46 0.51 0.55 0.55 0.52 0.45 0.44 0.38 0.37 0.36 0.33 0.34 0.35 0.30 0.31 0.27 0.20 0.25 0.22 0.24 0.21 0.24 0.21 0.27 0.28 0.26 0.29 0.30 0.27 0.27 0.27 0.30
0.42 0.42 0.43 0.44 0.44 0.45 0.46 0.43 0.47 0.47 0.39 0.38 0.38 0.34 0.39 0.45 0.47 0.55 0.39 0.42 0.45 0.41 0.48 0.37 0.33 0.28 0.29 0.23 0.24 0.27 0.30 0.32 0.28 0.27 0.32 0.36 0.38 0.39 0.35 0.32 0.32 0.36 0.37 0.33
0.38 0.38 0.41 0.42 0.44 0.45 0.45 0.41 0.43 0.41 0.36 0.27 0.27 0.39 0.36 0.43 0.43 0.42 0.44 0.41 0.45 0.43 0.43 0.37 0.33 0.28 0.36 0.26 0.27 0.26 0.28 0.30 0.29 0.30 0.34 0.35 0.37 0.40 0.42 0.42 0.42 0.38 0.39 0.40
0.36 0.36 0.36 0.37 0.38 0.41 0.43 0.43 0.42 0.42 0.32 0.24 0.27 0.35 0.35 0.37 0.38 0.38 0.41 0.41 0.38 0.35 0.31 0.29 0.27 0.33 0.31 0.31 0.31 0.26 0.31 0.27 0.25 0.23 0.32 0.33 0.34 0.37 0.39 0.37 0.36 0.36 0.36 0.35
0.38 0.38 0.37 0.37 0.38 0.40 0.37 0.26 0.34 0.41 0.42 0.28 0.19 0.28 0.23 0.26 0.28 0.29 0.30 0.37 0.39 0.37 0.31 0.29 0.31 0.34 0.29 0.23 0.21 0.29 0.30 0.32 0.33 0.30 0.33 0.32 0.32 0.31 0.30 0.29 0.30 0.31 0.30 0.28
0.39 0.38 0.39 0.39 0.38 0.38 0.29 0.25 0.35 0.45 0.44 0.28 0.20 0.19 0.22 0.24 0.24 0.24 0.27 0.30 0.32 0.31 0.29 0.30 0.30 0.30 0.29 0.24 0.19 0.25 0.26 0.26 0.27 0.28 0.27 0.23 0.24 0.25 0.26 0.26 0.25 0.25 0.25 0.24
0.39 0.39 0.40 0.40 0.40 0.39 0.31 0.37 0.43 0.45 0.34 0.30 0.18 0.18 0.16 0.22 0.18 0.19 0.26 0.24 0.27 0.27 0.25 0.25 0.24 0.24 0.24 0.18 0.21 0.21 0.22 0.21 0.21 0.21 0.22 0.21 0.22 0.22 0.23 0.23 0.23 0.22 0.21 0.20
0.37 0.38 0.39 0.40 0.34 0.27 0.30 0.41 0.42 0.43 0.33 0.20 0.20 0.15 0.12 0.22 0.20 0.22 0.21 0.23 0.17 0.23 0.20 0.21 0.22 0.19 0.16 0.18 0.19 0.17 0.17 0.16 0.16 0.18 0.18 0.19 0.19 0.19 0.20 0.20 0.19 0.18 0.18 0.18
0.35 0.35 0.28 0.22 0.30 0.40 0.37 0.31 0.25 0.25 0.24 0.22 0.15 0.16 0.14 0.18 0.17 0.16 0.17 0.18 0.16 0.14 0.17 0.19 0.15 0.14 0.14 0.14 0.15 0.15 0.16 0.17 0.17 0.16 0.16 0.17 0.17 0.17 0.17 0.17 0.17 0.17 0.17 0.17
0.32 0.25 0.23 0.33 0.39 0.29 0.24 0.18 0.17 0.17 0.14 0.15 0.14 0.14 0.13 0.18 0.13 0.14 0.17 0.14 0.15 0.12 0.13 0.14 0.12 0.12 0.13 0.14 0.14 0.15 0.16 0.16 0.16 0.17 0.18 0.17 0.17 0.16 0.16 0.16 0.16 0.16 0.15 0.13
0.32 0.31 0.34 0.31 0.23 0.20 0.16 0.14 0.15 0.13 0.11 0.13 0.13 0.14 0.15 0.16 0.18 0.15 0.15 0.13 0.13 0.10 0.14 0.12 0.10 0.11 0.13 0.13 0.13 0.14 0.15 0.15 0.16 0.16 0.16 0.16 0.16 0.16 0.15 0.14 0.13 0.12 0.11 0.09
0.31 0.23 0.19 0.16 0.15 0.11 0.10 0.09 0.10 0.10 0.12 0.13 0.13 0.12 0.14 0.16 0.16 0.14 0.13 0.11 0.10 0.13 0.10 0.09 0.09 0.11 0.12 0.12 0.13 0.14 0.15 0.15 0.14 0.14 0.13 0.12 0.12 0.11 0.10 0.09 0.08 0.07 0.07 0.06
0.17 0.14 0.11 0.11 0.10 0.10 0.10 0.10 0.10 0.12 0.13 0.13 0.12 0.12 0.12 0.14 0.12 0.12 0.10 0.11 0.11 0.08 0.07 0.07 0.09 0.10 0.11 0.12 0.13 0.13 0.12 0.10 0.09 0.09 0.08 0.08 0.08 0.07 0.07 0.07 0.07 0.06 0.06 0.06
0.14 0.13 0.09 0.09 0.10 0.10 0.09 0.09 0.09 0.09 0.10 0.09 0.10 0.12 0.12 0.11 0.11 0.11 0.10 0.09 0.07 0.07 0.06 0.07 0.09 0.10 0.10 0.11 0.12 0.10 0.09 0.09 0.08 0.07 0.07 0.07 0.06 0.06 0.06 0.06 0.06 0.06 0.06 0.06
0.08 0.07 0.07 0.08 0.07 0.07 0.07 0.07 0.07 0.08 0.08 0.11 0.11 0.10 0.09 0.09 0.09 0.08 0.07 0.07 0.06 0.07 0.08 0.09 0.10 0.10 0.09 0.10 0.10 0.10 0.10 0.09 0.08 0.07 0.07 0.07 0.06 0.06 0.06 0.06 0.06 0.06 0.06 0.06
0.06 0.06 0.07 0.07 0.06 0.05 0.05 0.06 0.06 0.07 0.06 0.05 0.08 0.07 0.07 0.09 0.07 0.06 0.07 0.06 0.07 0.08 0.09 0.09 0.09 0.09 0.08 0.09 0.08 0.08 0.08 0.08 0.08 0.07 0.07 0.07 0.06 0.06 0.06 0.06 0.07 0.07 0.07 0.06

GFSNW_prec_pwat_363.txt.gz
Precipitable_Water
0.62 0.62 0.64 0.66 0.66 0.63 0.58 0.45 0.27 0.49 0.51 0.30 0.30 0.24 0.25 0.28 0.27 0.30 0.29 0.30 0.29 0.26 0.26 0.24 0.23 0.22 0.23 0.27 0.27 0.22 0.24 0.22 0.17 0.18 0.23 0.24 0.23 0.20 0.20 0.16 0.14 0.16 0.15 0.12
0.65 0.68 0.67 0.67 0.70 0.65 0.50 0.36 0.34 0.49 0.46 0.24 0.26 0.28 0.27 0.26 0.25 0.25 0.25 0.25 0.28 0.30 0.25 0.21 0.23 0.23 0.27 0.29 0.26 0.23 0.25 0.20 0.16 0.18 0.22 0.24 0.21 0.22 0.22 0.21 0.19 0.15 0.14 0.13
0.70 0.70 0.71 0.73 0.77 0.77 0.63 0.46 0.33 0.41 0.44 0.39 0.31 0.28 0.27 0.25 0.30 0.28 0.29 0.26 0.28 0.27 0.27 0.29 0.26 0.26 0.30 0.34 0.32 0.34 0.32 0.24 0.20 0.17 0.19 0.23 0.21 0.23 0.24 0.23 0.18 0.19 0.17 0.18
0.86 0.85 0.83 0.82 0.77 0.76 0.63 0.48 0.40 0.44 0.33 0.35 0.37 0.35 0.32 0.29 0.29 0.36 0.36 0.33 0.33 0.34 0.32 0.34 0.33 0.37 0.39 0.41 0.41 0.39 0.35 0.26 0.27 0.26 0.27 0.25 0.23 0.22 0.23 0.22 0.22 0.19 0.18 0.20
0.86 0.88 0.89 0.89 0.91 0.87 0.70 0.52 0.46 0.44 0.36 0.39 0.38 0.38 0.32 0.31 0.32 0.33 0.32 0.31 0.33 0.33 0.30 0.32 0.31 0.34 0.33 0.31 0.35 0.34 0.35 0.27 0.29 0.26 0.29 0.28 0.25 0.25 0.24 0.23 0.23 0.22 0.23 0.21
0.81 0.83 0.84 0.89 0.93 0.90 0.65 0.67 0.63 0.51 0.41 0.38 0.35 0.33 0.34 0.34 0.37 0.36 0.38 0.38 0.36 0.35 0.37 0.40 0.39 0.41 0.42 0.41 0.37 0.35 0.35 0.32 0.30 0.24 0.31 0.31 0.26 0.23 0.27 0.27 0.27 0.26 0.23 0.25
0.82 0.81 0.81 0.82 0.84 0.88 0.75 0.67 0.62 0.48 0.37 0.40 0.36 0.38 0.39 0.38 0.38 0.36 0.40 0.40 0.36 0.42 0.50 0.49 0.48 0.47 0.46 0.45 0.43 0.45 0.35 0.33 0.32 0.26 0.29 0.19 0.23 0.29 0.30 0.28 0.28 0.30 0.29 0.29
0.76 0.80 0.80 0.77 0.79 0.84 0.73 0.68 0.59 0.50 0.39 0.43 0.41 0.40 0.40 0.42 0.42 0.40 0.40 0.42 0.45 0.51 0.49 0.38 0.33 0.33 0.35 0.35 0.40 0.40 0.42 0.35 0.28 0.24 0.23 0.24 0.23 0.24 0.25 0.26 0.22 0.29 0.29 0.30
0.56 0.61 0.70 0.75 0.77 0.79 0.72 0.66 0.66 0.54 0.42 0.40 0.47 0.42 0.42 0.38 0.39 0.40 0.41 0.49 0.52 0.51 0.41 0.35 0.25 0.22 0.25 0.25 0.29 0.39 0.40 0.40 0.31 0.26 0.20 0.16 0.17 0.25 0.30 0.31 0.20 0.27 0.31 0.29
0.54 0.51 0.54 0.61 0.70 0.72 0.70 0.62 0.67 0.54 0.41 0.45 0.47 0.39 0.39 0.45 0.42 0.38 0.40 0.43 0.44 0.50 0.36 0.29 0.26 0.25 0.31 0.24 0.23 0.25 0.29 0.31 0.26 0.25 0.22 0.24 0.26 0.28 0.32 0.21 0.16 0.27 0.29 0.27
0.47 0.52 0.53 0.56 0.58 0.61 0.64 0.60 0.66 0.53 0.43 0.45 0.49 0.50 0.44 0.43 0.42 0.34 0.41 0.40 0.41 0.38 0.31 0.29 0.29 0.28 0.29 0.28 0.27 0.26 0.25 0.25 0.24 0.26 0.22 0.19 0.30 0.30 0.24 0.24 0.29 0.30 0.29 0.29
0.46 0.46 0.47 0.48 0.52 0.59 0.62 0.50 0.63 0.62 0.46 0.43 0.53 0.52 0.51 0.49 0.50 0.45 0.45 0.38 0.38 0.41 0.35 0.34 0.33 0.29 0.32 0.29 0.23 0.31 0.25 0.27 0.25 0.27 0.25 0.32 0.33 0.32 0.35 0.34 0.30 0.30 0.31 0.32
0.46 0.44 0.44 0.46 0.48 0.51 0.55 0.49 0.53 0.51 0.42 0.41 0.42 0.38 0.46 0.51 0.51 0.56 0.38 0.42 0.46 0.43 0.47 0.38 0.35 0.28 0.33 0.25 0.27 0.30 0.34 0.37 0.31 0.31 0.33 0.34 0.35 0.36 0.37 0.36 0.35 0.38 0.39 0.38
0.44 0.42 0.41 0.43 0.45 0.48 0.50 0.44 0.48 0.43 0.37 0.28 0.29 0.43 0.39 0.45 0.46 0.46 0.48 0.41 0.45 0.45 0.42 0.34 0.29 0.26 0.33 0.26 0.29 0.29 0.34 0.35 0.31 0.31 0.36 0.39 0.42 0.43 0.44 0.44 0.44 0.43 0.44 0.43
0.43 0.42 0.42 0.41 0.40 0.43 0.46 0.45 0.46 0.47 0.35 0.24 0.24 0.31 0.33 0.35 0.35 0.33 0.36 0.37 0.35 0.33 0.31 0.29 0.27 0.32 0.30 0.31 0.31 0.26 0.30 0.27 0.24 0.23 0.32 0.34 0.35 0.39 0.40 0.38 0.39 0.39 0.38 0.36
0.38 0.39 0.38 0.40 0.40 0.39 0.34 0.25 0.36 0.45 0.43 0.29 0.19 0.27 0.25 0.27 0.29 0.28 0.28 0.30 0.30 0.30 0.27 0.24 0.26 0.31 0.28 0.22 0.20 0.24 0.26 0.28 0.29 0.29 0.33 0.33 0.34 0.34 0.36 0.36 0.34 0.34 0.32 0.31
0.39 0.39 0.39 0.40 0.42 0.38 0.27 0.23 0.34 0.42 0.41 0.26 0.19 0.16 0.22 0.23 0.24 0.24 0.25 0.27 0.26 0.25 0.23 0.22 0.20 0.19 0.21 0.19 0.16 0.20 0.24 0.25 0.27 0.27 0.29 0.29 0.30 0.30 0.32 0.31 0.30 0.29 0.27 0.26
0.39 0.39 0.39 0.40 0.43 0.43 0.35 0.41 0.44 0.44 0.33 0.29 0.18 0.17 0.18 0.22 0.19 0.17 0.22 0.20 0.21 0.22 0.21 0.21 0.19 0.19 0.20 0.17 0.16 0.17 0.18 0.19 0.22 0.23 0.25 0.26 0.27 0.27 0.27 0.27 0.25 0.23 0.22 0.21
0.36 0.39 0.40 0.38 0.37 0.31 0.33 0.43 0.40 0.37 0.29 0.20 0.18 0.14 0.13 0.21 0.18 0.20 0.20 0.22 0.16 0.21 0.17 0.17 0.17 0.14 0.12 0.12 0.13 0.14 0.16 0.16 0.16 0.17 0.19 0.21 0.22 0.22 0.22 0.22 0.21 0.20 0.19 0.18
0.34 0.30 0.24 0.21 0.30 0.42 0.39 0.32 0.25 0.23 0.22 0.20 0.15 0.16 0.14 0.17 0.16 0.16 0.16 0.18 0.14 0.12 0.13 0.16 0.12 0.10 0.11 0.12 0.12 0.12 0.13 0.15 0.16 0.16 0.17 0.18 0.18 0.18 0.19 0.18 0.18 0.18 0.17 0.16
0.28 0.23 0.21 0.28 0.33 0.29 0.23 0.17 0.16 0.15 0.13 0.14 0.14 0.14 0.11 0.16 0.13 0.13 0.16 0.13 0.14 0.10 0.11 0.11 0.10 0.09 0.10 0.11 0.11 0.12 0.13 0.14 0.15 0.16 0.16 0.16 0.16 0.16 0.16 0.16 0.16 0.16 0.15 0.15
0.27 0.25 0.24 0.22 0.18 0.17 0.14 0.11 0.12 0.11 0.10 0.11 0.10 0.10 0.10 0.12 0.16 0.13 0.14 0.11 0.12 0.09 0.13 0.11 0.08 0.09 0.10 0.11 0.12 0.12 0.13 0.14 0.14 0.14 0.15 0.15 0.15 0.16 0.15 0.15 0.15 0.15 0.15 0.15
0.21 0.17 0.14 0.13 0.11 0.08 0.07 0.05 0.06 0.06 0.07 0.08 0.09 0.08 0.08 0.10 0.14 0.12 0.11 0.09 0.09 0.12 0.09 0.08 0.08 0.10 0.10 0.11 0.11 0.11 0.12 0.13 0.13 0.13 0.13 0.14 0.14 0.15 0.15 0.14 0.14 0.14 0.14 0.13
0.13 0.09 0.07 0.07 0.06 0.06 0.06 0.06 0.06 0.07 0.07 0.07 0.07 0.06 0.07 0.10 0.10 0.11 0.08 0.10 0.10 0.07 0.06 0.06 0.08 0.09 0.09 0.10 0.11 0.10 0.11 0.11 0.12 0.11 0.10 0.10 0.10 0.11 0.11 0.11 0.11 0.10 0.09 0.08
0.08 0.06 0.04 0.04 0.05 0.05 0.05 0.05 0.05 0.05 0.05 0.06 0.05 0.06 0.07 0.07 0.08 0.09 0.08 0.07 0.06 0.06 0.05 0.07 0.08 0.09 0.09 0.10 0.10 0.10 0.10 0.10 0.10 0.10 0.09 0.08 0.08 0.07 0.08 0.08 0.08 0.07 0.07 0.07
0.05 0.05 0.04 0.05 0.04 0.04 0.04 0.04 0.04 0.05 0.05 0.06 0.06 0.06 0.06 0.06 0.06 0.06 0.05 0.05 0.05 0.05 0.07 0.07 0.08 0.08 0.09 0.09 0.10 0.10 0.10 0.10 0.10 0.10 0.10 0.09 0.08 0.07 0.07 0.07 0.07 0.07 0.07 0.06
0.05 0.05 0.06 0.05 0.05 0.04 0.04 0.04 0.04 0.05 0.05 0.05 0.05 0.04 0.05 0.06 0.05 0.05 0.06 0.05 0.05 0.05 0.06 0.06 0.07 0.07 0.07 0.08 0.08 0.09 0.10 0.09 0.09 0.09 0.09 0.09 0.10 0.09 0.08 0.07 0.07 0.07 0.07 0.06

GFSNW_prec_pwat_369.txt.gz
Precipitable_Water
0.64 0.63 0.61 0.65 0.67 0.65 0.56 0.44 0.27 0.50 0.53 0.32 0.32 0.26 0.28 0.31 0.30 0.34 0.32 0.32 0.30 0.27 0.26 0.24 0.24 0.23 0.25 0.29 0.28 0.24 0.28 0.24 0.20 0.21 0.26 0.27 0.25 0.23 0.23 0.19 0.17 0.19 0.17 0.14
0.67 0.66 0.64 0.65 0.70 0.65 0.49 0.35 0.33 0.51 0.46 0.24 0.25 0.29 0.27 0.28 0.27 0.27 0.27 0.27 0.29 0.29 0.27 0.24 0.26 0.26 0.30 0.30 0.28 0.25 0.27 0.23 0.19 0.20 0.24 0.26 0.24 0.24 0.24 0.23 0.22 0.16 0.15 0.13
0.75 0.69 0.70 0.67 0.71 0.69 0.54 0.37 0.26 0.38 0.40 0.36 0.27 0.25 0.24 0.24 0.28 0.26 0.27 0.26 0.28 0.25 0.23 0.25 0.23 0.24 0.28 0.31 0.29 0.31 0.30 0.24 0.21 0.18 0.21 0.24 0.22 0.23 0.24 0.22 0.17 0.17 0.15 0.15
0.88 0.80 0.73 0.72 0.74 0.72 0.57 0.38 0.29 0.34 0.31 0.34 0.33 0.31 0.28 0.25 0.24 0.29 0.30 0.28 0.27 0.25 0.23 0.24 0.23 0.25 0.26 0.29 0.30 0.31 0.28 0.22 0.23 0.24 0.25 0.25 0.24 0.23 0.23 0.20 0.20 0.18 0.15 0.18
0.86 0.83 0.80 0.75 0.79 0.78 0.60 0.42 0.34 0.35 0.29 0.31 0.30 0.31 0.28 0.29 0.29 0.29 0.28 0.28 0.29 0.28 0.25 0.26 0.24 0.27 0.28 0.26 0.31 0.29 0.30 0.22 0.24 0.22 0.26 0.27 0.26 0.28 0.27 0.26 0.26 0.25 0.24 0.23
0.89 0.87 0.82 0.80 0.79 0.79 0.60 0.60 0.55 0.39 0.31 0.29 0.29 0.26 0.27 0.28 0.33 0.34 0.35 0.35 0.31 0.30 0.35 0.38 0.36 0.38 0.40 0.38 0.36 0.35 0.33 0.30 0.28 0.24 0.31 0.31 0.26 0.24 0.29 0.30 0.30 0.29 0.25 0.24
0.81 0.85 0.81 0.79 0.80 0.81 0.70 0.64 0.57 0.45 0.32 0.33 0.26 0.27 0.28 0.28 0.30 0.29 0.30 0.31 0.31 0.38 0.43 0.43 0.44 0.43 0.41 0.40 0.37 0.37 0.32 0.31 0.31 0.27 0.29 0.20 0.23 0.31 0.30 0.28 0.28 0.28 0.26 0.25
0.70 0.77 0.80 0.84 0.83 0.82 0.74 0.72 0.60 0.49 0.37 0.40 0.39 0.36 0.35 0.37 0.38 0.35 0.34 0.38 0.42 0.46 0.42 0.35 0.32 0.33 0.34 0.35 0.39 0.38 0.39 0.36 0.29 0.25 0.24 0.25 0.24 0.26 0.26 0.25 0.21 0.27 0.25 0.25
0.65 0.69 0.69 0.75 0.80 0.82 0.78 0.68 0.67 0.54 0.41 0.38 0.45 0.41 0.40 0.36 0.36 0.38 0.40 0.46 0.49 0.46 0.41 0.34 0.25 0.22 0.26 0.25 0.29 0.38 0.37 0.38 0.31 0.27 0.21 0.18 0.18 0.27 0.29 0.29 0.18 0.26 0.27 0.25
0.49 0.54 0.58 0.66 0.70 0.74 0.73 0.64 0.68 0.56 0.42 0.46 0.48 0.40 0.39 0.44 0.41 0.38 0.41 0.41 0.42 0.48 0.35 0.28 0.26 0.24 0.29 0.23 0.22 0.24 0.27 0.29 0.25 0.25 0.23 0.25 0.26 0.29 0.31 0.20 0.17 0.26 0.27 0.27
0.51 0.49 0.52 0.57 0.65 0.68 0.61 0.58 0.65 0.53 0.43 0.45 0.51 0.52 0.44 0.44 0.44 0.36 0.41 0.40 0.40 0.38 0.31 0.29 0.28 0.27 0.28 0.27 0.25 0.25 0.24 0.25 0.23 0.25 0.23 0.19 0.29 0.30 0.23 0.26 0.29 0.30 0.29 0.30
0.52 0.51 0.49 0.49 0.55 0.61 0.64 0.51 0.59 0.59 0.45 0.43 0.54 0.56 0.59 0.56 0.53 0.46 0.46 0.41 0.39 0.39 0.33 0.33 0.33 0.28 0.31 0.27 0.21 0.30 0.25 0.27 0.25 0.27 0.25 0.32 0.33 0.32 0.35 0.34 0.33 0.33 0.33 0.34
0.51 0.50 0.49 0.49 0.48 0.51 0.51 0.48 0.53 0.49 0.41 0.40 0.41 0.41 0.53 0.61 0.58 0.61 0.38 0.42 0.47 0.44 0.47 0.38 0.35 0.28 0.33 0.24 0.25 0.26 0.31 0.36 0.30 0.30 0.33 0.36 0.39 0.40 0.41 0.41 0.40 0.41 0.40 0.38
0.48 0.46 0.44 0.43 0.44 0.50 0.48 0.44 0.49 0.46 0.39 0.29 0.32 0.47 0.44 0.50 0.51 0.53 0.53 0.48 0.49 0.47 0.44 0.35 0.31 0.26 0.34 0.27 0.29 0.28 0.31 0.33 0.30 0.30 0.34 0.37 0.38 0.38 0.38 0.38 0.41 0.41 0.43 0.45
0.44 0.43 0.41 0.41 0.42 0.44 0.45 0.45 0.46 0.46 0.33 0.24 0.26 0.34 0.37 0.37 0.40 0.40 0.45 0.45 0.41 0.37 0.32 0.30 0.27 0.32 0.30 0.30 0.29 0.25 0.28 0.27 0.25 0.23 0.29 0.29 0.31 0.34 0.34 0.34 0.35 0.37 0.37 0.38
0.42 0.42 0.40 0.40 0.41 0.42 0.36 0.26 0.40 0.47 0.43 0.28 0.19 0.28 0.26 0.27 0.30 0.30 0.31 0.34 0.36 0.36 0.31 0.29 0.31 0.35 0.29 0.22 0.20 0.22 0.24 0.25 0.26 0.25 0.27 0.26 0.27 0.27 0.28 0.28 0.29 0.30 0.32 0.34
0.38 0.38 0.37 0.40 0.42 0.38 0.27 0.25 0.37 0.44 0.45 0.27 0.19 0.19 0.24 0.23 0.25 0.25 0.24 0.27 0.26 0.28 0.27 0.26 0.27 0.28 0.30 0.23 0.18 0.20 0.21 0.21 0.22 0.23 0.23 0.23 0.23 0.22 0.23 0.23 0.23 0.24 0.25 0.28
0.36 0.37 0.40 0.43 0.43 0.42 0.33 0.36 0.40 0.42 0.31 0.26 0.16 0.16 0.17 0.19 0.18 0.17 0.22 0.21 0.22 0.23 0.22 0.22 0.19 0.22 0.22 0.17 0.17 0.18 0.19 0.19 0.20 0.20 0.20 0.19 0.20 0.20 0.20 0.21 0.21 0.20 0.21 0.23
0.40 0.43 0.41 0.37 0.33 0.28 0.30 0.38 0.34 0.33 0.27 0.18 0.15 0.12 0.12 0.16 0.15 0.17 0.19 0.20 0.16 0.21 0.18 0.18 0.19 0.15 0.13 0.13 0.14 0.14 0.15 0.15 0.15 0.16 0.16 0.16 0.15 0.16 0.16 0.17 0.17 0.18 0.18 0.19
0.32 0.28 0.21 0.19 0.26 0.35 0.36 0.28 0.22 0.20 0.18 0.17 0.12 0.11 0.09 0.11 0.12 0.14 0.14 0.17 0.14 0.13 0.15 0.17 0.13 0.12 0.13 0.13 0.14 0.14 0.14 0.14 0.14 0.12 0.12 0.12 0.12 0.12 0.12 0.13 0.15 0.15 0.16 0.17
0.24 0.19 0.18 0.24 0.25 0.23 0.18 0.13 0.12 0.11 0.09 0.10 0.10 0.09 0.07 0.10 0.08 0.09 0.12 0.12 0.13 0.10 0.11 0.12 0.10 0.09 0.10 0.12 0.12 0.12 0.12 0.12 0.12 0.12 0.12 0.12 0.11 0.12 0.12 0.13 0.13 0.14 0.14 0.15
0.21 0.19 0.17 0.15 0.12 0.11 0.09 0.07 0.07 0.07 0.06 0.08 0.06 0.06 0.07 0.07 0.09 0.08 0.10 0.10 0.11 0.08 0.12 0.09 0.07 0.08 0.10 0.10 0.10 0.11 0.11 0.11 0.11 0.11 0.11 0.11 0.11 0.12 0.12 0.13 0.14 0.14 0.14 0.14
0.14 0.12 0.10 0.08 0.07 0.06 0.05 0.04 0.03 0.03 0.04 0.04 0.04 0.03 0.05 0.06 0.06 0.06 0.08 0.07 0.07 0.11 0.08 0.06 0.07 0.08 0.08 0.09 0.09 0.09 0.10 0.10 0.10 0.10 0.10 0.11 0.11 0.12 0.12 0.13 0.13 0.14 0.14 0.14
0.08 0.06 0.04 0.04 0.03 0.03 0.03 0.03 0.03 0.04 0.04 0.04 0.04 0.04 0.04 0.05 0.05 0.06 0.05 0.07 0.07 0.05 0.04 0.05 0.06 0.07 0.07 0.08 0.08 0.08 0.08 0.09 0.09 0.10 0.10 0.10 0.11 0.11 0.11 0.11 0.12 0.13 0.13 0.13
0.05 0.05 0.04 0.04 0.05 0.05 0.05 0.04 0.04 0.04 0.05 0.05 0.05 0.05 0.06 0.06 0.06 0.06 0.06 0.05 0.04 0.04 0.04 0.05 0.06 0.06 0.06 0.06 0.07 0.07 0.07 0.07 0.08 0.08 0.09 0.10 0.10 0.10 0.10 0.10 0.09 0.09 0.10 0.11
0.06 0.05 0.05 0.05 0.05 0.04 0.05 0.04 0.04 0.05 0.05 0.05 0.05 0.05 0.05 0.05 0.05 0.05 0.04 0.04 0.04 0.04 0.04 0.05 0.05 0.05 0.05 0.05 0.05 0.05 0.05 0.06 0.06 0.07 0.07 0.08 0.09 0.09 0.10 0.10 0.10 0.09 0.08 0.08
0.06 0.06 0.06 0.06 0.06 0.05 0.05 0.05 0.05 0.05 0.05 0.04 0.04 0.03 0.04 0.04 0.03 0.03 0.04 0.03 0.04 0.05 0.05 0.06 0.06 0.05 0.05 0.05 0.05 0.05 0.05 0.05 0.05 0.05 0.06 0.06 0.07 0.08 0.09 0.09 0.09 0.10 0.09 0.08

GFSNW_prec_pwat_372.txt.gz
Precipitable_Water
0.67 0.65 0.67 0.65 0.67 0.64 0.60 0.49 0.33 0.57 0.59 0.34 0.35 0.30 0.34 0.39 0.40 0.43 0.40 0.38 0.35 0.32 0.29 0.26 0.25 0.24 0.26 0.30 0.30 0.26 0.29 0.26 0.22 0.24 0.28 0.29 0.28 0.26 0.26 0.20 0.19 0.20 0.18 0.16
0.78 0.69 0.67 0.68 0.69 0.64 0.49 0.37 0.34 0.56 0.51 0.28 0.30 0.32 0.31 0.32 0.32 0.33 0.35 0.33 0.33 0.32 0.29 0.25 0.26 0.26 0.29 0.29 0.27 0.26 0.28 0.24 0.20 0.21 0.24 0.26 0.23 0.25 0.25 0.25 0.23 0.18 0.16 0.14
0.88 0.77 0.72 0.70 0.72 0.68 0.50 0.32 0.24 0.39 0.42 0.39 0.31 0.29 0.29 0.29 0.33 0.32 0.32 0.30 0.32 0.29 0.27 0.28 0.25 0.27 0.30 0.31 0.29 0.31 0.30 0.24 0.21 0.18 0.21 0.24 0.21 0.23 0.24 0.23 0.19 0.19 0.17 0.17
0.88 0.85 0.77 0.75 0.77 0.72 0.56 0.37 0.27 0.31 0.26 0.30 0.30 0.29 0.27 0.25 0.25 0.31 0.32 0.28 0.28 0.26 0.23 0.24 0.23 0.25 0.27 0.29 0.30 0.31 0.28 0.22 0.23 0.23 0.24 0.24 0.23 0.23 0.24 0.22 0.22 0.20 0.18 0.20
0.87 0.83 0.81 0.79 0.78 0.75 0.58 0.38 0.32 0.37 0.29 0.30 0.29 0.27 0.24 0.23 0.24 0.25 0.25 0.26 0.27 0.26 0.23 0.23 0.22 0.25 0.25 0.24 0.27 0.26 0.28 0.21 0.24 0.22 0.25 0.26 0.24 0.24 0.24 0.24 0.24 0.23 0.22 0.21
0.79 0.85 0.86 0.81 0.81 0.77 0.58 0.59 0.53 0.34 0.31 0.31 0.30 0.27 0.29 0.29 0.31 0.31 0.31 0.32 0.32 0.30 0.30 0.33 0.35 0.38 0.38 0.35 0.31 0.30 0.28 0.26 0.23 0.19 0.25 0.26 0.21 0.20 0.24 0.24 0.24 0.22 0.19 0.19
0.74 0.78 0.82 0.86 0.82 0.78 0.64 0.62 0.55 0.42 0.31 0.31 0.27 0.28 0.28 0.27 0.28 0.26 0.29 0.30 0.29 0.33 0.43 0.47 0.46 0.41 0.39 0.39 0.37 0.36 0.31 0.30 0.30 0.25 0.29 0.20 0.22 0.30 0.31 0.29 0.30 0.33 0.31 0.30
0.62 0.68 0.76 0.77 0.83 0.83 0.72 0.67 0.57 0.46 0.35 0.36 0.35 0.33 0.30 0.32 0.31 0.28 0.28 0.30 0.33 0.40 0.39 0.31 0.28 0.31 0.33 0.32 0.35 0.36 0.38 0.34 0.29 0.25 0.24 0.25 0.24 0.27 0.28 0.27 0.24 0.31 0.30 0.32
0.51 0.54 0.67 0.73 0.77 0.77 0.76 0.69 0.69 0.54 0.41 0.36 0.39 0.38 0.38 0.33 0.33 0.35 0.37 0.42 0.45 0.45 0.37 0.33 0.25 0.23 0.26 0.25 0.29 0.37 0.36 0.36 0.30 0.28 0.22 0.19 0.19 0.29 0.33 0.33 0.21 0.31 0.32 0.31
0.53 0.49 0.56 0.65 0.70 0.73 0.73 0.66 0.70 0.56 0.42 0.46 0.48 0.41 0.38 0.42 0.40 0.36 0.39 0.39 0.41 0.46 0.35 0.28 0.26 0.25 0.30 0.23 0.22 0.25 0.28 0.29 0.26 0.26 0.24 0.25 0.28 0.31 0.33 0.22 0.20 0.31 0.32 0.31
0.54 0.51 0.52 0.57 0.66 0.68 0.65 0.59 0.68 0.56 0.46 0.47 0.52 0.53 0.46 0.45 0.43 0.35 0.40 0.39 0.39 0.38 0.30 0.29 0.28 0.27 0.28 0.27 0.26 0.26 0.25 0.24 0.23 0.26 0.23 0.19 0.31 0.32 0.25 0.30 0.32 0.32 0.32 0.32
0.55 0.53 0.53 0.53 0.58 0.61 0.61 0.51 0.61 0.62 0.48 0.44 0.55 0.56 0.59 0.56 0.53 0.46 0.45 0.40 0.39 0.39 0.33 0.33 0.33 0.28 0.30 0.26 0.22 0.31 0.25 0.28 0.26 0.27 0.25 0.33 0.34 0.32 0.36 0.37 0.35 0.36 0.36 0.37
0.55 0.52 0.50 0.49 0.50 0.55 0.58 0.53 0.54 0.51 0.42 0.42 0.43 0.42 0.51 0.58 0.56 0.58 0.40 0.43 0.47 0.43 0.47 0.39 0.35 0.29 0.33 0.24 0.24 0.27 0.30 0.35 0.30 0.30 0.34 0.36 0.36 0.36 0.37 0.38 0.38 0.40 0.41 0.40
0.52 0.49 0.47 0.48 0.51 0.51 0.50 0.45 0.50 0.48 0.41 0.31 0.33 0.48 0.43 0.46 0.50 0.53 0.53 0.48 0.51 0.48 0.46 0.37 0.33 0.29 0.35 0.29 0.31 0.29 0.32 0.33 0.30 0.31 0.34 0.34 0.35 0.35 0.35 0.36 0.37 0.38 0.40 0.41
0.47 0.45 0.44 0.43 0.45 0.44 0.44 0.45 0.46 0.47 0.35 0.26 0.29 0.38 0.37 0.37 0.40 0.41 0.47 0.45 0.42 0.39 0.34 0.32 0.29 0.34 0.32 0.32 0.31 0.27 0.28 0.27 0.25 0.24 0.29 0.31 0.31 0.33 0.33 0.32 0.32 0.33 0.34 0.35
0.43 0.42 0.41 0.41 0.42 0.40 0.32 0.25 0.39 0.46 0.43 0.28 0.21 0.31 0.28 0.28 0.30 0.32 0.33 0.37 0.39 0.36 0.31 0.30 0.32 0.36 0.31 0.24 0.22 0.23 0.24 0.26 0.27 0.26 0.28 0.28 0.28 0.30 0.30 0.29 0.29 0.28 0.29 0.30
0.38 0.39 0.41 0.40 0.38 0.32 0.24 0.22 0.33 0.43 0.43 0.27 0.21 0.20 0.24 0.21 0.24 0.26 0.26 0.29 0.29 0.29 0.28 0.27 0.28 0.29 0.30 0.24 0.19 0.20 0.21 0.22 0.23 0.24 0.25 0.24 0.24 0.23 0.24 0.25 0.24 0.24 0.24 0.24
0.39 0.42 0.43 0.41 0.39 0.35 0.29 0.32 0.37 0.38 0.28 0.23 0.17 0.16 0.18 0.18 0.17 0.17 0.22 0.21 0.23 0.24 0.23 0.23 0.21 0.23 0.22 0.17 0.17 0.18 0.19 0.20 0.20 0.20 0.21 0.21 0.21 0.21 0.22 0.23 0.22 0.21 0.21 0.21
0.43 0.41 0.39 0.34 0.31 0.26 0.28 0.36 0.30 0.30 0.25 0.16 0.12 0.11 0.10 0.13 0.13 0.15 0.18 0.20 0.16 0.21 0.18 0.18 0.19 0.15 0.13 0.13 0.14 0.15 0.16 0.16 0.16 0.17 0.17 0.17 0.17 0.18 0.18 0.18 0.19 0.18 0.18 0.18
0.31 0.27 0.19 0.17 0.24 0.33 0.35 0.25 0.20 0.17 0.16 0.15 0.10 0.10 0.08 0.10 0.10 0.11 0.11 0.15 0.14 0.13 0.15 0.17 0.13 0.11 0.13 0.13 0.13 0.14 0.14 0.14 0.15 0.14 0.14 0.15 0.15 0.15 0.15 0.15 0.14 0.14 0.14 0.15
0.22 0.17 0.17 0.19 0.23 0.20 0.15 0.11 0.10 0.10 0.08 0.09 0.08 0.08 0.06 0.09 0.07 0.07 0.10 0.10 0.12 0.09 0.11 0.12 0.09 0.09 0.10 0.11 0.11 0.12 0.12 0.13 0.13 0.13 0.13 0.14 0.13 0.13 0.13 0.13 0.13 0.13 0.13 0.13
0.20 0.18 0.16 0.13 0.11 0.10 0.08 0.07 0.06 0.06 0.05 0.06 0.05 0.05 0.05 0.06 0.07 0.06 0.07 0.07 0.09 0.07 0.11 0.08 0.06 0.07 0.08 0.09 0.09 0.10 0.11 0.11 0.11 0.12 0.12 0.12 0.12 0.11 0.11 0.11 0.11 0.12 0.13 0.13
0.13 0.11 0.09 0.07 0.07 0.05 0.04 0.02 0.02 0.02 0.03 0.04 0.04 0.03 0.04 0.05 0.06 0.05 0.05 0.05 0.06 0.08 0.06 0.05 0.06 0.07 0.07 0.07 0.08 0.08 0.08 0.09 0.09 0.10 0.10 0.11 0.11 0.11 0.11 0.10 0.10 0.11 0.12 0.12
0.07 0.05 0.04 0.04 0.04 0.04 0.04 0.04 0.03 0.04 0.04 0.04 0.04 0.04 0.04 0.05 0.05 0.06 0.04 0.06 0.06 0.05 0.04 0.04 0.05 0.06 0.06 0.07 0.07 0.07 0.07 0.07 0.07 0.08 0.08 0.09 0.09 0.10 0.10 0.10 0.10 0.10 0.10 0.12
0.05 0.05 0.04 0.05 0.05 0.06 0.05 0.05 0.05 0.05 0.05 0.05 0.05 0.05 0.05 0.05 0.05 0.06 0.05 0.05 0.04 0.04 0.04 0.05 0.05 0.06 0.06 0.06 0.06 0.06 0.06 0.06 0.05 0.06 0.06 0.06 0.07 0.08 0.08 0.10 0.10 0.10 0.10 0.10
0.06 0.06 0.06 0.06 0.05 0.05 0.05 0.05 0.05 0.05 0.05 0.05 0.05 0.04 0.04 0.05 0.04 0.04 0.04 0.04 0.04 0.04 0.05 0.05 0.06 0.06 0.06 0.06 0.06 0.06 0.06 0.05 0.05 0.05 0.05 0.05 0.05 0.06 0.06 0.08 0.09 0.09 0.09 0.09
0.06 0.06 0.07 0.06 0.06 0.05 0.05 0.05 0.05 0.06 0.06 0.04 0.04 0.03 0.03 0.04 0.03 0.03 0.04 0.04 0.04 0.05 0.06 0.06 0.06 0.06 0.06 0.06 0.06 0.06 0.06 0.06 0.06 0.06 0.06 0.05 0.05 0.05 0.05 0.05 0.06 0.08 0.09 0.09

GFSNW_prec_pwat_375.txt.gz
Precipitable_Water
0.73 0.74 0.70 0.68 0.66 0.62 0.67 0.53 0.38 0.63 0.67 0.42 0.40 0.33 0.33 0.35 0.34 0.37 0.35 0.35 0.34 0.32 0.30 0.28 0.29 0.29 0.30 0.33 0.32 0.27 0.30 0.29 0.21 0.23 0.29 0.29 0.28 0.25 0.25 0.20 0.20 0.22 0.21 0.18
0.79 0.79 0.74 0.72 0.72 0.66 0.55 0.43 0.42 0.59 0.57 0.32 0.34 0.38 0.38 0.39 0.38 0.39 0.39 0.38 0.39 0.38 0.34 0.30 0.31 0.30 0.33 0.33 0.32 0.30 0.31 0.28 0.24 0.25 0.28 0.30 0.28 0.29 0.30 0.29 0.28 0.23 0.19 0.18
0.89 0.82 0.77 0.75 0.75 0.71 0.53 0.40 0.30 0.41 0.47 0.41 0.34 0.32 0.33 0.33 0.40 0.41 0.43 0.42 0.43 0.38 0.34 0.34 0.29 0.29 0.31 0.32 0.31 0.33 0.31 0.28 0.25 0.22 0.26 0.27 0.23 0.26 0.27 0.26 0.21 0.21 0.19 0.20
0.88 0.87 0.82 0.80 0.80 0.75 0.57 0.38 0.29 0.35 0.29 0.32 0.37 0.37 0.34 0.30 0.30 0.36 0.36 0.34 0.34 0.33 0.30 0.29 0.28 0.29 0.30 0.31 0.31 0.31 0.28 0.22 0.24 0.25 0.26 0.25 0.24 0.23 0.24 0.22 0.22 0.20 0.19 0.21
0.81 0.79 0.85 0.82 0.81 0.78 0.57 0.37 0.36 0.36 0.31 0.34 0.31 0.30 0.30 0.30 0.30 0.31 0.31 0.33 0.32 0.30 0.26 0.26 0.24 0.27 0.27 0.26 0.30 0.28 0.30 0.25 0.26 0.23 0.25 0.24 0.22 0.23 0.23 0.22 0.23 0.22 0.22 0.19
0.75 0.80 0.86 0.82 0.82 0.76 0.59 0.57 0.49 0.38 0.30 0.30 0.27 0.25 0.25 0.25 0.29 0.30 0.30 0.29 0.28 0.28 0.29 0.31 0.31 0.33 0.33 0.33 0.30 0.27 0.26 0.25 0.23 0.20 0.25 0.25 0.21 0.22 0.24 0.25 0.26 0.25 0.21 0.21
0.65 0.72 0.82 0.83 0.81 0.74 0.63 0.63 0.53 0.36 0.29 0.32 0.29 0.29 0.28 0.25 0.26 0.23 0.25 0.28 0.27 0.31 0.39 0.41 0.41 0.39 0.39 0.37 0.34 0.36 0.28 0.27 0.26 0.22 0.25 0.18 0.21 0.27 0.27 0.25 0.25 0.27 0.25 0.23
0.60 0.70 0.75 0.78 0.79 0.78 0.68 0.66 0.56 0.44 0.31 0.33 0.32 0.33 0.32 0.34 0.33 0.30 0.29 0.34 0.37 0.41 0.37 0.31 0.30 0.31 0.31 0.32 0.35 0.37 0.38 0.32 0.27 0.25 0.24 0.25 0.24 0.28 0.27 0.27 0.24 0.31 0.30 0.30
0.52 0.60 0.69 0.71 0.76 0.76 0.74 0.67 0.67 0.53 0.39 0.34 0.38 0.35 0.34 0.30 0.30 0.31 0.32 0.38 0.43 0.40 0.35 0.27 0.22 0.21 0.24 0.25 0.27 0.33 0.34 0.35 0.31 0.27 0.22 0.18 0.20 0.30 0.35 0.34 0.21 0.32 0.33 0.31
0.47 0.56 0.56 0.65 0.71 0.74 0.76 0.67 0.72 0.57 0.41 0.44 0.45 0.39 0.37 0.40 0.36 0.34 0.37 0.37 0.38 0.40 0.29 0.25 0.23 0.24 0.29 0.24 0.23 0.25 0.29 0.30 0.26 0.26 0.24 0.25 0.29 0.32 0.35 0.23 0.22 0.33 0.34 0.35
0.46 0.55 0.55 0.55 0.61 0.67 0.66 0.60 0.68 0.56 0.45 0.47 0.51 0.50 0.45 0.44 0.41 0.35 0.40 0.39 0.39 0.37 0.30 0.28 0.28 0.27 0.29 0.28 0.27 0.27 0.25 0.25 0.25 0.26 0.23 0.19 0.33 0.33 0.26 0.31 0.35 0.34 0.35 0.34
0.50 0.53 0.56 0.58 0.56 0.58 0.59 0.50 0.62 0.63 0.51 0.46 0.55 0.55 0.57 0.57 0.52 0.44 0.45 0.39 0.39 0.38 0.32 0.33 0.32 0.29 0.31 0.27 0.23 0.33 0.26 0.28 0.26 0.27 0.25 0.33 0.33 0.33 0.35 0.37 0.36 0.36 0.36 0.38
0.50 0.55 0.56 0.55 0.55 0.54 0.52 0.52 0.56 0.54 0.44 0.43 0.45 0.42 0.52 0.58 0.57 0.59 0.41 0.44 0.47 0.43 0.46 0.39 0.35 0.29 0.34 0.25 0.25 0.29 0.33 0.36 0.30 0.31 0.35 0.34 0.34 0.35 0.36 0.37 0.37 0.38 0.39 0.39
0.55 0.53 0.54 0.54 0.54 0.52 0.52 0.47 0.54 0.50 0.43 0.32 0.34 0.48 0.43 0.47 0.53 0.54 0.54 0.50 0.51 0.50 0.47 0.38 0.34 0.29 0.37 0.31 0.31 0.31 0.33 0.36 0.32 0.32 0.34 0.34 0.34 0.34 0.34 0.35 0.36 0.37 0.38 0.38
0.49 0.50 0.51 0.49 0.48 0.47 0.47 0.47 0.48 0.49 0.38 0.29 0.31 0.38 0.36 0.40 0.45 0.46 0.49 0.47 0.43 0.40 0.35 0.33 0.30 0.35 0.34 0.34 0.33 0.27 0.29 0.28 0.27 0.26 0.29 0.30 0.31 0.33 0.33 0.32 0.33 0.33 0.34 0.34
0.43 0.44 0.45 0.44 0.41 0.39 0.33 0.27 0.41 0.46 0.46 0.31 0.24 0.33 0.28 0.31 0.35 0.36 0.37 0.40 0.40 0.38 0.33 0.31 0.34 0.38 0.32 0.25 0.23 0.24 0.26 0.27 0.27 0.26 0.28 0.28 0.29 0.30 0.30 0.29 0.30 0.31 0.32 0.31
0.41 0.40 0.38 0.37 0.35 0.30 0.23 0.22 0.30 0.39 0.40 0.28 0.23 0.22 0.26 0.24 0.26 0.29 0.28 0.32 0.33 0.33 0.31 0.29 0.30 0.30 0.30 0.24 0.20 0.21 0.23 0.24 0.24 0.25 0.25 0.25 0.25 0.25 0.27 0.27 0.27 0.28 0.28 0.28
0.41 0.40 0.38 0.36 0.34 0.32 0.27 0.29 0.33 0.37 0.26 0.23 0.17 0.16 0.18 0.18 0.18 0.19 0.23 0.23 0.26 0.26 0.25 0.26 0.23 0.25 0.22 0.17 0.18 0.19 0.20 0.20 0.21 0.21 0.22 0.22 0.23 0.23 0.23 0.24 0.24 0.23 0.23 0.23
0.39 0.37 0.34 0.31 0.28 0.24 0.27 0.32 0.26 0.26 0.22 0.14 0.12 0.11 0.11 0.14 0.13 0.16 0.18 0.20 0.17 0.22 0.19 0.19 0.20 0.16 0.14 0.15 0.16 0.16 0.17 0.17 0.17 0.18 0.19 0.19 0.19 0.19 0.20 0.20 0.20 0.19 0.19 0.20
0.30 0.26 0.19 0.16 0.23 0.30 0.27 0.20 0.18 0.16 0.15 0.14 0.09 0.10 0.09 0.10 0.10 0.11 0.11 0.14 0.14 0.13 0.15 0.17 0.13 0.11 0.13 0.13 0.14 0.15 0.15 0.15 0.15 0.15 0.15 0.16 0.16 0.16 0.17 0.16 0.17 0.17 0.17 0.17
0.22 0.18 0.15 0.18 0.19 0.17 0.13 0.10 0.09 0.09 0.08 0.08 0.08 0.07 0.07 0.09 0.07 0.07 0.09 0.09 0.11 0.09 0.11 0.11 0.09 0.09 0.10 0.11 0.11 0.12 0.12 0.13 0.13 0.13 0.14 0.14 0.14 0.14 0.15 0.15 0.15 0.15 0.15 0.16
0.20 0.18 0.16 0.14 0.11 0.10 0.08 0.06 0.06 0.05 0.04 0.06 0.05 0.04 0.05 0.05 0.06 0.05 0.06 0.05 0.07 0.06 0.10 0.08 0.06 0.07 0.08 0.09 0.09 0.09 0.10 0.10 0.10 0.11 0.11 0.11 0.12 0.12 0.13 0.13 0.13 0.13 0.14 0.13
0.13 0.10 0.08 0.07 0.05 0.03 0.03 0.03 0.04 0.04 0.05 0.05 0.04 0.04 0.05 0.06 0.06 0.05 0.05 0.04 0.05 0.08 0.05 0.05 0.06 0.06 0.07 0.07 0.07 0.07 0.08 0.08 0.08 0.08 0.08 0.09 0.09 0.10 0.10 0.11 0.11 0.12 0.12 0.12
0.06 0.05 0.04 0.05 0.04 0.05 0.05 0.05 0.05 0.05 0.05 0.05 0.05 0.05 0.05 0.05 0.05 0.05 0.04 0.06 0.06 0.05 0.04 0.04 0.06 0.06 0.06 0.07 0.07 0.07 0.07 0.07 0.07 0.07 0.07 0.06 0.07 0.07 0.08 0.08 0.09 0.09 0.10 0.11
0.06 0.06 0.05 0.05 0.06 0.06 0.06 0.05 0.05 0.05 0.05 0.06 0.05 0.05 0.05 0.05 0.05 0.05 0.05 0.04 0.04 0.04 0.04 0.05 0.07 0.07 0.06 0.06 0.06 0.06 0.06 0.06 0.06 0.06 0.06 0.06 0.06 0.06 0.06 0.06 0.07 0.07 0.08 0.09
0.07 0.07 0.06 0.06 0.06 0.05 0.05 0.05 0.05 0.06 0.06 0.06 0.06 0.04 0.04 0.04 0.04 0.04 0.04 0.04 0.04 0.05 0.05 0.06 0.06 0.06 0.06 0.06 0.06 0.06 0.06 0.06 0.06 0.06 0.06 0.06 0.06 0.06 0.05 0.05 0.06 0.06 0.06 0.06
0.07 0.06 0.07 0.07 0.06 0.06 0.05 0.05 0.05 0.07 0.07 0.05 0.05 0.04 0.04 0.04 0.04 0.04 0.04 0.04 0.05 0.05 0.06 0.06 0.06 0.06 0.06 0.05 0.05 0.05 0.05 0.05 0.06 0.06 0.06 0.06 0.06 0.06 0.06 0.05 0.06 0.06 0.06 0.06